FW5182 Weather Reports


time (UTC)temp
F
wind
direction
speed
knots
gust
knots
rain 1hr
in
rain 24hr
in
rain mn
in
humidity
%
barometer
mb
20260507074545 59 0.0 0.0 0.00 0.00 0.00 33 1015.4
20260507073043 57 0.0 0.0 0.00 0.00 0.00 33 1015.6
20260507071544 57 0.0 0.0 0.00 0.00 0.00 32 1015.8
20260507070044 57 0.0 0.0 0.00 0.00 0.00 32 1015.4
20260507064546 56 0.0 0.0 0.00 0.00 0.00 33 1015.5
20260507063042 54 0.0 0.0 0.00 0.00 0.00 33 1015.6
20260507061518 53 0.0 0.0 0.00 0.00 0.00 34 1015.3
20260507060025 53 0.0 0.0 0.00 0.00 0.00 34 1015.3
20260507053030 52 0.0 0.0 0.00 0.00 0.00 35 1015.2
20260507051534 51 0.0 0.0 0.00 0.00 0.00 37 1015.6
20260507050037 48 0.0 0.0 0.00 0.00 0.00 39 1015.2
20260507044543 45 0.0 0.0 0.00 0.00 0.00 44 1015.2
20260507043042 42 0.0 0.0 0.00 0.00 0.00 45 1015.5
20260507041543 40 0.0 0.0 0.00 0.00 0.00 46 1015.5
20260507040043 38 0.0 0.0 0.00 0.00 0.00 47 1015.2
20260507034644 38 0.0 0.0 0.00 0.00 0.00 47 1015.3
20260507033043 37 0.0 0.0 0.00 0.00 0.00 48 1015.4
20260507031542 36 0.0 0.0 0.00 0.00 0.00 48 1015.2
20260507030042 36 0.0 0.0 0.00 0.00 0.00 48 1015.1
20260507024519 35 0.0 0.0 0.00 0.00 0.00 48 1015.0
20260507023023 35 0.0 0.0 0.00 0.00 0.00 48 1015.1
20260507021527 35 0.0 0.0 0.00 0.00 0.00 48 1015.1
20260507020034 36 0.0 0.0 0.00 0.00 0.00 47 1015.0
20260507014533 36 0.0 0.0 0.00 0.00 0.00 47 1015.1
20260507013037 36 0.0 0.0 0.00 0.00 0.00 47 1015.0
20260507011541 37 0.0 0.0 0.00 0.00 0.00 46 1014.9
20260507010042 38 0.0 0.0 0.00 0.00 0.00 46 1014.8
20260507004540 38 0.0 0.0 0.00 0.00 0.00 46 1014.9
20260507003144 38 0.0 0.0 0.00 0.00 0.00 46 1014.8
20260507001539 39 0.0 0.0 0.00 0.00 0.00 46 1014.6
20260507000045 39 0.0 0.0 0.00 0.00 0.00 46 1014.7
20260506234536 40 0.0 0.0 0.00 0.00 0.00 45 1014.7
20260506233044 40 0.0 0.0 0.00 0.00 0.00 45 1014.9
20260506231519 41 0.0 0.0 0.00 0.00 0.00 45 1014.5
20260506230021 41 0.0 0.0 0.00 0.00 0.00 45 1014.7
20260506224527 41 0.0 0.0 0.00 0.00 0.00 46 1014.7
20260506221531 41 0.0 0.0 0.00 0.00 0.00 51 1014.5
20260506220040 40 0.0 0.0 0.00 0.00 0.00 53 1014.4
20260506214528 41 0.0 0.0 0.00 0.00 0.00 53 1014.3
20260506213044 41 0.0 0.0 0.00 0.00 0.00 51 1014.4
20260506211525 42 0.0 0.0 0.00 0.00 0.00 51 1014.2
20260506210042 42 0.0 0.0 0.00 0.00 0.00 50 1014.1
20260506204523 43 0.0 0.0 0.00 0.00 0.00 49 1014.1
20260506203044 44 0.0 0.0 0.00 0.00 0.00 48 1014.2
20260506201525 44 0.0 0.0 0.00 0.00 0.00 48 1014.0
20260506200044 46 0.0 0.0 0.00 0.00 0.00 46 1013.9
20260506194520 46 0.0 0.0 0.00 0.00 0.00 44 1013.9
20260506193044 47 0.0 0.0 0.00 0.00 0.00 44 1013.9
20260506191522 48 0.0 0.0 0.00 0.00 0.00 41 1013.8
20260506184517 49 0.0 0.0 0.00 0.00 0.00 38 1013.8
20260506183039 50 0.0 0.0 0.00 0.00 0.00 38 1013.8
20260506181542 50 0.0 0.0 0.00 0.00 0.00 36 1013.8
20260506180146 51 0.0 0.0 0.00 0.00 0.00 36 1013.5
20260506174546 51 0.0 0.0 0.00 0.00 0.00 36 1013.7
20260506173145 51 0.0 0.0 0.00 0.00 0.00 35 1013.7
20260506171542 52 0.0 0.0 0.00 0.00 0.00 35 1013.7
20260506170042 52 0.0 0.0 0.00 0.00 0.00 35 1013.4
20260506164644 53 0.0 0.0 0.00 0.00 0.00 35 1013.3
20260506161522 53 0.0 0.0 0.00 0.00 0.00 35 1013.5
20260506160022 53 0.0 0.0 0.00 0.00 0.00 35 1013.4
20260506154527 54 0.0 0.0 0.00 0.00 0.00 34 1013.4
20260506153032 54 0.0 0.0 0.00 0.00 0.00 34 1013.6
20260506150039 55 0.0 0.0 0.00 0.00 0.00 34 1013.7
20260506144544 55 0.0 0.0 0.00 0.00 0.00 34 1013.4
20260506143044 55 0.0 0.0 0.00 0.00 0.00 34 1013.5
20260506141542 55 0.0 0.0 0.00 0.00 0.00 34 1013.3
20260506140044 55 0.0 0.0 0.00 0.00 0.00 34 1013.4
20260506134542 56 0.0 0.0 0.00 0.00 0.00 34 1013.4
20260506133047 56 0.0 0.0 0.00 0.00 0.00 34 1013.4
20260506131547 56 0.0 0.0 0.00 0.00 0.00 34 1013.3
20260506130015 56 0.0 0.0 0.00 0.00 0.00 35 1013.2
20260506124519 55 0.0 0.0 0.00 0.00 0.00 35 1013.3
20260506123025 56 0.0 0.0 0.00 0.00 0.00 36 1013.2
20260506120030 56 0.0 0.0 0.00 0.00 0.00 35 1013.1
20260506113038 56 0.0 0.0 0.00 0.00 0.00 32 1013.2
20260506111647 56 0.0 0.0 0.00 0.00 0.00 32 1013.3
20260506110039 56 0.0 0.0 0.00 0.00 0.00 32 1013.1
20260506104545 55 0.0 0.0 0.00 0.00 0.00 32 1013.1
20260506103137 55 0.0 0.0 0.00 0.00 0.00 33 1013.1
20260506101544 55 0.0 0.0 0.00 0.00 0.00 33 1013.1
20260506100034 54 0.0 0.0 0.00 0.00 0.00 33 1013.0
20260506094543 54 0.0 0.0 0.00 0.00 0.00 33 1013.0
20260506093016 54 0.0 0.0 0.00 0.00 0.00 34 1012.9
20260506091520 55 0.0 0.0 0.00 0.00 0.00 34 1012.8
20260506083028 55 0.0 0.0 0.00 0.00 0.00 34 1012.9
20260506081536 57 0.0 0.0 0.00 0.00 0.00 36 1012.8